Location: Bettgenhausen
(50.6463°N, 7.5681°E)
Time: 22:00:41
(UTC+00:00)

STARLINK-76 - Pass Details

Date: 27 February 2020
Orbit: 528 x 531 km, 53.0° (Epoch: 29 March)

Event Time Altitude Azimuth Distance (km) Brightness Sun altitude
Rises 17:37:55 0° 263° (W) 2,663 10.1 -5.7°
Reaches altitude 10° 17:40:08 10° 266° (W) 1,775 8.1 -6.1°
Maximum altitude 17:44:09 67° 350° (N) 577 3.8 -6.7°
Drops below altitude 10° 17:48:10 10° 74° (ENE) 1,778 5.6 -7.3°
Enters shadow 17:48:22 - 74° (ENE) 1,857 5.7 -7.4°
